When you browse on this site, cookies collect data to enhance your experience and personalize the content and advertising you see.
Visit our Privacy Policy to learn more. By continuing to use the site, you agree to this use of cookies and data.

Hourly Weather Hannover

Today, 4 July, Saturday

Time Temperature Precipitation Wind Pressure Humidity
00:00 +16°C° 0 mm 3 mps 756 mmHg 81%
01:00 +15°C° 0 mm 4 mps 756 mmHg 75%
02:00 +15°C° 0 mm 4 mps 756 mmHg 77%
03:00 +15°C° 0 mm 4 mps 756 mmHg 79%
04:00 +14°C° 0 mm 4 mps 755 mmHg 80%
05:00 +15°C° 0 mm 5 mps 755 mmHg 79%
06:00 +16°C° 0 mm 5 mps 755 mmHg 77%
07:00 +16°C° 0 mm 6 mps 755 mmHg 75%
08:00 +17°C° 0 mm 6 mps 755 mmHg 76%
09:00 +17°C° 0 mm 6 mps 755 mmHg 78%
10:00 +17°C° 0 mm 6 mps 755 mmHg 79%
11:00 +17°C° 0 mm 6 mps 755 mmHg 78%
12:00 +17°C° 0 mm 6 mps 755 mmHg 77%
13:00 +17°C° 0 mm 6 mps 755 mmHg 77%
14:00 +17°C° 0 mm 6 mps 755 mmHg 76%
15:00 +19°C° 0 mm 5 mps 755 mmHg 75%
16:00 +19°C° 0 mm 5 mps 754 mmHg 75%
17:00 +19°C° 0 mm 5 mps 754 mmHg 76%
18:00 +19°C° 0 mm 5 mps 754 mmHg 77%
19:00 +19°C° 0 mm 5 mps 754 mmHg 77%
20:00 +19°C° 0 mm 5 mps 754 mmHg 78%
21:00 +19°C° 0 mm 5 mps 754 mmHg 79%
22:00 +19°C° 0 mm 5 mps 754 mmHg 80%
23:00 +19°C° 0 mm 5 mps 754 mmHg 81%

Tomorrow, 5 July, Sunday

Time Temperature Precipitation Wind Pressure Humidity
00:00 +19°C° 0 mm 5 mps 754 mmHg 82%
01:00 +19°C° 0 mm 5 mps 754 mmHg 84%
02:00 +19°C° 0.1 mm 5 mps 753 mmHg 85%
03:00 +19°C° 0.1 mm 5 mps 753 mmHg 86%
04:00 +19°C° 0.1 mm 5 mps 752 mmHg 87%
05:00 +19°C° 0.1 mm 6 mps 752 mmHg 87%
06:00 +19°C° 0.1 mm 6 mps 752 mmHg 88%
07:00 +19°C° 0.1 mm 6 mps 752 mmHg 88%
08:00 +19°C° 0 mm 6 mps 752 mmHg 87%
09:00 +20°C° 0 mm 7 mps 752 mmHg 85%
10:00 +20°C° 0 mm 7 mps 752 mmHg 84%
11:00 +20°C° 0 mm 7 mps 752 mmHg 81%
12:00 +21°C° 0 mm 7 mps 751 mmHg 79%
13:00 +21°C° 0 mm 7 mps 751 mmHg 77%
14:00 +21°C° 0.1 mm 7 mps 751 mmHg 78%
15:00 +20°C° 0.1 mm 7 mps 751 mmHg 79%
16:00 +20°C° 0.1 mm 7 mps 751 mmHg 80%
17:00 +20°C° 0.1 mm 7 mps 751 mmHg 80%
18:00 +20°C° 0.1 mm 7 mps 751 mmHg 79%
19:00 +20°C° 0.1 mm 7 mps 751 mmHg 79%
20:00 +19°C° 0.2 mm 6 mps 751 mmHg 82%
21:00 +17°C° 0.2 mm 6 mps 751 mmHg 85%
22:00 +16°C° 0.2 mm 5 mps 751 mmHg 88%
23:00 +15°C° 0.1 mm 5 mps 751 mmHg 88%

Day after tomorrow, 6 July, Monday

Time Temperature Precipitation Wind Pressure Humidity
00:00 +15°C° 0.1 mm 5 mps 751 mmHg 89%
01:00 +14°C° 0.1 mm 5 mps 751 mmHg 90%
02:00 +14°C° 0.1 mm 5 mps 751 mmHg 88%
03:00 +13°C° 0.1 mm 5 mps 751 mmHg 86%
04:00 +13°C° 0.1 mm 5 mps 751 mmHg 85%
05:00 +13°C° 0 mm 6 mps 751 mmHg 82%
06:00 +13°C° 0 mm 6 mps 752 mmHg 79%
07:00 +14°C° 0 mm 7 mps 752 mmHg 76%
08:00 +13°C° 0.1 mm 8 mps 752 mmHg 72%
09:00 +15°C° 0.1 mm 8 mps 752 mmHg 68%
10:00 +16°C° 0.1 mm 8 mps 752 mmHg 64%
11:00 +16°C° 0.3 mm 8 mps 752 mmHg 64%
12:00 +17°C° 0.3 mm 8 mps 752 mmHg 63%
13:00 +17°C° 0.3 mm 9 mps 753 mmHg 63%
14:00 +17°C° 0.5 mm 8 mps 753 mmHg 63%
15:00 +17°C° 0.5 mm 8 mps 753 mmHg 64%
16:00 +17°C° 0.5 mm 7 mps 754 mmHg 64%
17:00 +16°C° 0.3 mm 7 mps 754 mmHg 69%
18:00 +15°C° 0.3 mm 6 mps 755 mmHg 75%
19:00 +15°C° 0.3 mm 5 mps 755 mmHg 80%
20:00 +13°C° 0 mm 5 mps 756 mmHg 83%
21:00 +12°C° 0 mm 4 mps 756 mmHg 86%
22:00 +11°C° 0 mm 4 mps 757 mmHg 89%
23:00 +11°C° 0 mm 4 mps 757 mmHg 90%

7 July, Tuesday

Time Temperature Precipitation Wind Pressure Humidity
00:00 +10°C° 0 mm 4 mps 758 mmHg 91%
01:00 +10°C° 0 mm 3 mps 758 mmHg 92%
02:00 +10°C° 0 mm 3 mps 758 mmHg 92%
03:00 +9°C° 0 mm 3 mps 758 mmHg 91%
04:00 +8°C° 0 mm 3 mps 759 mmHg 91%
05:00 +9°C° 0 mm 3 mps 759 mmHg 86%
06:00 +11°C° 0 mm 3 mps 759 mmHg 82%
07:00 +12°C° 0 mm 4 mps 760 mmHg 78%
08:00 +13°C° 0 mm 4 mps 760 mmHg 72%
09:00 +14°C° 0 mm 4 mps 760 mmHg 66%
10:00 +17°C° 0 mm 4 mps 760 mmHg 60%
11:00 +16°C° 0 mm 5 mps 760 mmHg 58%
12:00 +17°C° 0 mm 5 mps 759 mmHg 57%
13:00 +19°C° 0 mm 5 mps 759 mmHg 55%
14:00 +19°C° 0.1 mm 5 mps 759 mmHg 56%
15:00 +19°C° 0.1 mm 5 mps 759 mmHg 56%
16:00 +19°C° 0.1 mm 5 mps 759 mmHg 57%
17:00 +18°C° 0.2 mm 4 mps 759 mmHg 65%
18:00 +17°C° 0.2 mm 4 mps 759 mmHg 74%
19:00 +16°C° 0.2 mm 3 mps 759 mmHg 82%
20:00 +14°C° 0.1 mm 3 mps 759 mmHg 84%
21:00 +14°C° 0.1 mm 2 mps 759 mmHg 86%
22:00 +14°C° 0.1 mm 2 mps 759 mmHg 88%
23:00 +13°C° 0 mm 2 mps 759 mmHg 90%

8 July, Wednesday

Time Temperature Precipitation Wind Pressure Humidity
00:00 +12°C° 0 mm 2 mps 759 mmHg 91%
01:00 +10°C° 0 mm 2 mps 759 mmHg 92%
02:00 +10°C° 0 mm 2 mps 759 mmHg 93%
03:00 +9°C° 0 mm 2 mps 759 mmHg 93%
04:00 +9°C° 0 mm 2 mps 759 mmHg 94%
05:00 +10°C° 0 mm 2 mps 759 mmHg 91%
06:00 +12°C° 0 mm 2 mps 759 mmHg 88%
07:00 +12°C° 0 mm 3 mps 758 mmHg 85%
08:00 +13°C° 0 mm 3 mps 758 mmHg 81%
09:00 +14°C° 0 mm 3 mps 758 mmHg 77%
10:00 +15°C° 0 mm 4 mps 758 mmHg 73%
11:00 +17°C° 0 mm 4 mps 758 mmHg 67%
12:00 +19°C° 0 mm 5 mps 757 mmHg 61%
13:00 +21°C° 0 mm 5 mps 757 mmHg 54%
14:00 +21°C° 0 mm 5 mps 756 mmHg 56%
15:00 +22°C° 0 mm 5 mps 756 mmHg 58%
16:00 +22°C° 0 mm 5 mps 755 mmHg 59%
17:00 +21°C° 0 mm 5 mps 755 mmHg 65%
18:00 +21°C° 0 mm 4 mps 755 mmHg 70%
19:00 +20°C° 0 mm 4 mps 755 mmHg 75%
20:00 +19°C° 0.1 mm 4 mps 755 mmHg 80%
21:00 +18°C° 0.1 mm 3 mps 755 mmHg 85%
22:00 +17°C° 0.1 mm 3 mps 755 mmHg 90%
23:00 +16°C° 0.2 mm 3 mps 756 mmHg 90%

9 July, Thursday

Time Temperature Precipitation Wind Pressure Humidity
00:00 +16°C° 0.2 mm 3 mps 756 mmHg 89%
01:00 +14°C° 0.2 mm 3 mps 756 mmHg 89%
02:00 +14°C° 0 mm 3 mps 756 mmHg 88%
03:00 +13°C° 0 mm 3 mps 756 mmHg 88%
04:00 +13°C° 0 mm 3 mps 756 mmHg 87%
05:00 +13°C° 0.1 mm 3 mps 756 mmHg 88%
06:00 +14°C° 0.1 mm 2 mps 756 mmHg 88%
07:00 +14°C° 0.1 mm 2 mps 757 mmHg 89%
08:00 +13°C° 0 mm 3 mps 757 mmHg 85%
09:00 +14°C° 0 mm 3 mps 757 mmHg 81%
10:00 +16°C° 0 mm 3 mps 757 mmHg 77%
11:00 +16°C° 0.1 mm 3 mps 757 mmHg 78%
12:00 +14°C° 0.1 mm 3 mps 757 mmHg 80%
13:00 +14°C° 0.1 mm 3 mps 757 mmHg 82%
14:00 +14°C° 0.4 mm 3 mps 757 mmHg 84%
15:00 +14°C° 0.4 mm 2 mps 757 mmHg 87%
16:00 +14°C° 0.4 mm 2 mps 757 mmHg 89%
17:00 +14°C° 0 mm 2 mps 757 mmHg 89%
18:00 +14°C° 0 mm 2 mps 757 mmHg 89%
19:00 +14°C° 0 mm 2 mps 757 mmHg 89%
20:00 +14°C° 0 mm 2 mps 757 mmHg 90%
21:00 +13°C° 0 mm 2 mps 757 mmHg 91%
22:00 +13°C° 0 mm 1 mps 757 mmHg 92%
23:00 +12°C° 0 mm 1 mps 757 mmHg 93%
Show more